Total_Precipitation_Accumulation
2.37 2.41 2.46 2.47 2.30 2.39 2.57 2.84 2.70 2.74 2.76 2.52 2.20 2.07 2.18 2.25 2.35 2.40 2.35 2.53 2.46 2.52 3.06 3.17 2.83 2.44 2.22 1.91 1.66 1.41 1.27 1.21 1.09 0.87 0.75 0.79 0.86 0.92 0.85 0.75 0.71 0.68 0.60
2.70 2.66 2.51 2.52 2.38 2.36 2.47 2.70 2.75 3.11 3.08 2.98 2.51 2.30 2.34 2.43 2.46 2.58 2.49 2.73 2.60 2.39 2.69 2.99 3.07 2.89 2.62 2.39 2.12 1.82 1.60 1.48 1.31 1.03 0.89 0.83 0.88 0.96 0.91 0.89 0.83 0.78 0.69
2.82 2.78 2.69 2.50 2.45 2.49 2.69 2.78 2.84 3.11 3.13 3.04 2.88 2.69 2.55 2.32 2.18 2.26 2.30 2.46 2.41 2.33 2.45 2.70 3.01 3.10 2.99 2.86 2.71 2.47 2.10 1.80 1.55 1.28 1.08 0.92 0.83 0.87 0.88 0.93 0.96 0.94 0.84
2.80 2.91 2.71 2.45 2.52 2.48 2.65 2.96 3.07 3.26 3.45 3.44 3.17 2.87 2.69 2.53 2.29 2.23 2.12 2.10 2.34 2.04 2.26 2.55 2.76 2.90 3.23 3.42 3.51 3.43 2.95 2.37 1.90 1.65 1.41 1.15 0.96 0.89 0.84 0.89 0.97 0.96 0.86
2.67 2.84 2.67 2.57 2.61 2.78 2.81 2.64 3.22 3.55 3.63 3.61 3.01 2.87 2.52 2.38 2.21 2.07 2.11 1.96 2.08 2.15 2.18 2.19 2.33 2.51 3.10 3.84 4.21 4.26 4.01 3.25 2.56 2.19 1.96 1.69 1.40 1.18 0.97 0.90 0.91 0.85 0.77
2.58 2.84 2.58 2.57 2.71 2.97 3.05 3.15 3.57 3.65 3.49 3.65 3.03 2.65 2.26 1.90 1.84 1.85 1.73 1.73 1.73 1.71 1.89 2.27 2.60 2.32 2.74 3.39 3.76 4.01 4.32 4.22 3.56 2.81 2.45 2.18 1.96 1.65 1.31 1.11 1.01 0.98 0.90
2.71 3.12 2.77 3.02 2.93 2.98 3.04 3.21 3.49 3.46 3.25 3.55 3.55 2.85 2.03 1.58 1.57 1.45 1.42 1.49 1.45 1.51 1.78 2.31 2.68 2.74 2.49 2.44 2.67 3.10 3.76 4.23 4.11 3.49 3.07 2.80 2.61 2.20 1.77 1.54 1.36 1.21 1.11
2.84 2.89 3.10 3.02 3.04 3.12 2.94 3.03 3.35 3.20 2.82 3.24 3.55 3.47 2.59 2.04 1.59 1.12 1.22 1.28 1.39 1.59 1.63 1.72 2.18 2.70 2.59 2.67 2.41 2.25 2.84 3.59 4.06 4.05 3.71 3.33 2.99 2.58 2.21 1.99 1.73 1.47 1.23
2.87 2.94 2.89 2.84 2.94 2.87 2.83 2.83 3.04 3.14 2.96 2.98 3.37 3.67 2.99 2.32 1.81 1.32 1.22 1.16 1.47 1.81 1.80 1.82 1.98 2.34 2.48 2.75 2.88 2.72 2.45 2.67 3.44 4.38 4.50 3.90 3.18 2.61 2.29 2.20 2.15 1.91 1.68
3.14 2.94 2.76 2.69 2.64 2.56 2.66 2.44 2.72 2.95 3.07 2.77 2.90 2.95 2.78 2.68 2.51 1.83 1.42 1.30 1.58 1.83 1.95 1.91 1.97 2.17 2.36 2.69 2.95 2.78 2.27 2.03 2.41 3.47 4.24 4.22 3.62 2.85 2.44 2.48 2.80 2.68 2.27
3.20 2.85 2.80 2.73 2.66 2.53 2.44 2.38 2.60 2.55 2.64 2.63 2.65 2.69 2.72 2.69 2.50 2.24 1.86 1.72 1.68 1.46 1.48 1.63 1.88 2.12 2.24 2.46 2.78 2.63 2.37 2.25 2.20 2.33 2.72 3.13 3.35 3.13 2.86 2.90 3.33 3.59 3.36
2.81 2.59 2.53 2.50 2.40 2.39 2.40 2.38 2.41 2.37 2.45 2.52 2.51 2.50 2.60 2.61 2.56 2.59 2.28 2.05 1.86 1.59 1.51 1.57 1.71 1.87 1.97 2.06 2.08 2.24 2.18 2.15 2.04 1.95 1.94 2.06 2.35 2.69 2.97 3.24 3.67 4.06 4.22
2.08 2.07 2.14 2.18 2.12 2.17 2.19 2.32 2.25 2.17 2.27 2.41 2.38 2.37 2.45 2.47 2.54 2.66 2.57 2.14 1.97 1.78 1.83 1.68 1.57 1.74 1.79 1.95 2.12 2.08 1.82 1.81 1.66 1.59 1.59 1.64 1.82 2.08 2.31 2.55 3.03 3.57 4.00
1.79 1.87 1.97 1.94 1.90 1.93 1.89 2.13 2.00 1.95 2.06 2.11 2.03 2.35 2.36 2.13 2.34 2.51 2.59 2.59 2.36 2.19 2.22 1.96 1.72 1.69 1.81 1.95 2.10 2.02 1.71 1.58 1.37 1.27 1.28 1.29 1.35 1.52 1.75 1.99 2.25 2.55 2.88
1.80 1.87 1.85 1.90 1.89 1.92 1.98 2.09 1.94 1.89 2.09 2.04 2.00 2.23 2.20 2.07 2.16 2.28 2.50 2.69 2.80 2.58 2.41 2.22 1.91 1.74 1.76 1.83 2.06 1.90 1.89 1.73 1.41 1.29 1.23 1.18 1.15 1.23 1.38 1.58 1.77 1.95 2.20
1.87 1.89 1.89 1.97 1.89 1.83 1.86 1.91 1.72 1.74 1.96 2.03 2.11 2.31 2.27 2.18 2.24 2.30 2.45 2.73 3.00 2.96 2.54 2.07 1.91 1.83 1.92 1.86 2.09 1.85 1.79 1.82 1.54 1.31 1.20 1.19 1.17 1.19 1.25 1.40 1.58 1.73 1.88
1.88 1.82 1.80 1.81 1.80 1.75 1.79 1.83 1.65 1.79 1.94 1.99 2.02 2.18 2.24 2.36 2.42 2.42 2.53 2.66 2.91 3.14 2.82 2.27 2.14 2.13 2.24 2.22 2.13 1.90 1.68 1.59 1.43 1.37 1.21 1.15 1.14 1.18 1.23 1.30 1.43 1.57 1.66
1.86 1.87 1.86 1.82 1.71 1.73 1.91 1.97 1.86 1.95 2.03 2.00 2.04 2.20 2.11 2.27 2.45 2.41 2.51 2.52 2.63 2.96 2.84 2.56 2.50 2.44 2.42 2.33 2.33 2.14 1.81 1.63 1.55 1.53 1.31 1.18 1.16 1.15 1.18 1.20 1.31 1.48 1.61
1.93 1.99 2.00 2.00 1.97 1.99 2.00 2.08 2.17 2.14 2.07 1.99 2.04 2.06 2.03 2.22 2.22 2.32 2.45 2.42 2.42 2.59 2.76 2.68 2.64 2.72 2.67 2.56 2.47 2.29 2.10 2.03 1.71 1.62 1.53 1.43 1.40 1.37 1.34 1.32 1.32 1.39 1.51
1.98 2.08 2.08 2.20 2.35 2.39 2.38 2.34 2.24 2.16 2.11 2.07 2.05 2.00 1.97 2.00 2.03 2.11 2.23 2.35 2.43 2.56 2.69 2.73 2.76 2.88 2.85 2.89 2.87 2.64 2.52 2.42 2.08 1.69 1.69 1.60 1.53 1.42 1.33 1.25 1.22 1.28 1.39
1.83 2.13 2.27 2.35 2.61 2.73 2.55 2.55 2.47 2.37 2.36 2.19 2.07 1.98 1.85 1.87 1.93 1.96 1.92 2.04 2.19 2.34 2.39 2.48 2.57 2.77 2.84 2.94 2.93 2.77 2.65 2.64 2.45 2.00 1.84 1.71 1.64 1.52 1.48 1.43 1.32 1.26 1.29
1.71 1.89 2.03 2.15 2.20 2.04 2.18 2.19 2.18 2.23 2.26 2.16 2.09 2.03 1.89 1.79 1.75 1.70 1.61 1.63 1.73 1.86 2.05 2.28 2.36 2.56 2.75 2.90 3.10 3.14 2.98 2.79 2.66 2.37 2.24 2.10 1.84 1.76 1.59 1.44 1.41 1.21 1.10
1.66 1.76 1.79 1.86 1.83 1.89 1.91 1.70 1.64 1.62 1.79 1.91 1.98 1.97 1.74 1.58 1.66 1.58 1.60 1.56 1.56 1.68 1.80 2.04 2.22 2.30 2.53 2.74 2.98 3.13 3.12 2.99 2.79 2.63 2.50 2.38 2.05 1.84 1.65 1.52 1.44 1.17 1.01
1.74 1.72 1.77 1.82 1.90 1.88 1.77 1.54 1.52 1.48 1.61 1.73 1.80 1.83 1.80 1.72 1.72 1.76 1.67 1.55 1.47 1.54 1.64 1.60 1.66 1.83 2.10 2.46 2.64 2.69 2.85 2.87 2.73 2.55 2.48 2.44 2.19 1.98 1.76 1.64 1.56 1.26 1.08
1.95 1.91 1.98 2.01 1.98 1.90 1.77 1.56 1.54 1.50 1.61 1.64 1.65 1.66 1.68 1.64 1.72 1.60 1.50 1.48 1.47 1.50 1.48 1.45 1.40 1.45 1.60 1.82 2.16 2.32 2.42 2.39 2.29 2.05 1.93 2.00 1.98 1.94 1.88 1.75 1.58 1.43 1.21
2.38 2.40 2.29 2.14 2.01 1.90 1.87 1.58 1.47 1.41 1.50 1.58 1.66 1.62 1.56 1.44 1.42 1.37 1.35 1.46 1.45 1.43 1.46 1.39 1.30 1.23 1.19 1.34 1.67 1.85 1.94 1.99 1.89 1.84 1.58 1.57 1.61 1.67 1.79 1.66 1.49 1.41 1.31